| time (UTC) | temp F | wind direction | speed MPH | gust MPH | rain 1hr in | rain 24hr in | rain mn in | humidity % | barometer mb |
| 20260903202654 | 78 | 336 | 1.0 | 1.0 | 0.00 | 0.17 | 0.17 | 89 | 1015.1 |
| 20260903202150 | 78 | 13 | 1.0 | 1.0 | 0.00 | 0.17 | 0.17 | 87 | 1015.3 |
| 20260903201649 | 77 | 13 | 0.0 | 1.0 | 0.00 | 0.17 | 0.17 | 89 | 1015.3 |
| 20260903201144 | 78 | 25 | 0.0 | 0.0 | 0.00 | 0.17 | 0.17 | 90 | 1015.5 |
| 20260903200639 | 77 | 12 | 0.0 | 0.0 | 0.00 | 0.17 | 0.17 | 89 | 1015.5 |
| 20260903200134 | 77 | 57 | 1.0 | 1.0 | 0.00 | 0.17 | 0.17 | 88 | 1015.2 |
| 20260903195630 | 77 | 116 | 2.0 | 2.0 | 0.00 | 0.17 | 0.17 | 90 | 1015.3 |
| 20260903195126 | 76 | 21 | 0.0 | 0.0 | 0.00 | 0.17 | 0.17 | 93 | 1015.2 |
| 20260903194620 | 77 | 23 | 0.0 | 0.0 | 0.00 | 0.17 | 0.17 | 93 | 1015.1 |
| 20260903194120 | 77 | 15 | 1.0 | 1.0 | 0.00 | 0.17 | 0.17 | 90 | 1015.1 |
| 20260903193616 | 77 | 17 | 0.0 | 0.0 | 0.00 | 0.17 | 0.17 | 90 | 1015.2 |
| 20260903193112 | 77 | 59 | 1.0 | 1.0 | 0.00 | 0.17 | 0.17 | 88 | 1015.3 |
| 20260903192609 | 77 | 12 | 1.0 | 1.0 | 0.00 | 0.17 | 0.17 | 87 | 1015.4 |
| 20260903192109 | 78 | 359 | 1.0 | 1.0 | 0.00 | 0.17 | 0.17 | 88 | 1015.5 |
| 20260903191605 | 76 | 19 | 0.0 | 0.0 | 0.00 | 0.17 | 0.17 | 89 | 1015.8 |
| 20260903191105 | 76 | 3 | 0.0 | 0.0 | 0.00 | 0.17 | 0.17 | 91 | 1015.8 |
| 20260903190604 | 76 | 81 | 1.0 | 1.0 | 0.00 | 0.17 | 0.17 | 91 | 1015.8 |
| 20260903190059 | 75 | 8 | 1.0 | 1.0 | 0.00 | 0.17 | 0.17 | 91 | 1015.7 |
| 20260903185555 | 75 | 3 | 1.0 | 1.0 | 0.00 | 0.17 | 0.17 | 90 | 1015.9 |
| 20260903185050 | 76 | 85 | 1.0 | 1.0 | 0.00 | 0.17 | 0.17 | 90 | 1015.9 |
| 20260903184546 | 77 | 51 | 1.0 | 1.0 | 0.00 | 0.17 | 0.17 | 90 | 1016.1 |
| 20260903184041 | 77 | 5 | 0.0 | 0.0 | 0.00 | 0.17 | 0.17 | 90 | 1016.0 |
| 20260903183540 | 77 | 9 | 0.0 | 0.0 | 0.00 | 0.17 | 0.17 | 89 | 1016.0 |
| 20260903183035 | 77 | 10 | 0.0 | 0.0 | 0.00 | 0.17 | 0.17 | 88 | 1016.1 |
| 20260903182534 | 77 | 356 | 0.0 | 1.0 | 0.00 | 0.17 | 0.17 | 89 | 1016.0 |
| 20260903182031 | 77 | 20 | 0.0 | 0.0 | 0.00 | 0.17 | 0.17 | 88 | 1015.9 |
| 20260903181528 | 77 | 17 | 0.0 | 0.0 | 0.00 | 0.17 | 0.17 | 89 | 1016.1 |
| 20260903181023 | 76 | 10 | 2.0 | 2.0 | 0.00 | 0.17 | 0.17 | 88 | 1016.1 |
| 20260903180519 | 76 | 240 | 3.0 | 3.0 | 0.00 | 0.17 | 0.17 | 87 | 1016.0 |
| 20260903180018 | 77 | 204 | 2.0 | 2.0 | 0.00 | 0.17 | 0.17 | 87 | 1016.3 |
| 20260903175517 | 77 | 348 | 2.0 | 3.0 | 0.00 | 0.17 | 0.17 | 88 | 1016.0 |
| 20260903175016 | 77 | 212 | 2.0 | 2.0 | 0.00 | 0.17 | 0.17 | 88 | 1016.0 |
| 20260903174512 | 77 | 352 | 1.0 | 2.0 | 0.00 | 0.17 | 0.17 | 86 | 1016.1 |
| 20260903174011 | 77 | 21 | 1.0 | 2.0 | 0.00 | 0.17 | 0.17 | 88 | 1016.1 |
| 20260903173507 | 77 | 219 | 3.0 | 5.0 | 0.00 | 0.17 | 0.17 | 87 | 1016.2 |
| 20260903173003 | 77 | 222 | 2.0 | 2.0 | 0.00 | 0.17 | 0.17 | 88 | 1016.2 |
| 20260903172457 | 77 | 313 | 2.0 | 2.0 | 0.00 | 0.17 | 0.17 | 89 | 1016.1 |
| 20260903171953 | 78 | 206 | 2.0 | 3.0 | 0.00 | 0.17 | 0.17 | 87 | 1016.2 |
| 20260903171448 | 77 | 278 | 2.0 | 3.0 | 0.00 | 0.17 | 0.17 | 88 | 1016.6 |
| 20260903170943 | 76 | 198 | 2.0 | 2.0 | 0.00 | 0.17 | 0.17 | 89 | 1016.4 |
| 20260903170437 | 76 | 188 | 2.0 | 2.0 | 0.00 | 0.17 | 0.17 | 91 | 1016.2 |
| 20260903165936 | 75 | 276 | 1.0 | 2.0 | 0.00 | 0.17 | 0.17 | 90 | 1016.4 |
| 20260903165430 | 76 | 218 | 2.0 | 2.0 | 0.00 | 0.17 | 0.17 | 91 | 1016.5 |
| 20260903164931 | 75 | 352 | 1.0 | 1.0 | 0.00 | 0.17 | 0.17 | 90 | 1016.5 |
| 20260903164426 | 75 | 224 | 1.0 | 2.0 | 0.00 | 0.17 | 0.17 | 89 | 1016.5 |
| 20260903163925 | 75 | 202 | 3.0 | 3.0 | 0.00 | 0.17 | 0.17 | 89 | 1016.3 |
| 20260903163422 | 76 | 244 | 3.0 | 3.0 | 0.00 | 0.17 | 0.17 | 89 | 1016.3 |
| 20260903162917 | 76 | 298 | 2.0 | 2.0 | 0.00 | 0.17 | 0.17 | 87 | 1016.4 |
| 20260903162414 | 75 | 15 | 0.0 | 0.0 | 0.00 | 0.17 | 0.17 | 88 | 1016.5 |
| 20260903161909 | 75 | 312 | 1.0 | 1.0 | 0.00 | 0.17 | 0.17 | 89 | 1016.5 |
| 20260903161404 | 75 | 230 | 3.0 | 3.0 | 0.00 | 0.17 | 0.17 | 89 | 1016.8 |
| 20260903160900 | 74 | 237 | 2.0 | 2.0 | 0.00 | 0.17 | 0.17 | 90 | 1016.8 |
| 20260903160359 | 74 | 191 | 3.0 | 3.0 | 0.00 | 0.17 | 0.17 | 91 | 1016.8 |
| 20260903155858 | 73 | 172 | 3.0 | 3.0 | 0.00 | 0.17 | 0.17 | 91 | 1016.9 |
| 20260903155353 | 73 | 319 | 3.0 | 3.0 | 0.00 | 0.17 | 0.17 | 91 | 1017.1 |
| 20260903154848 | 73 | 173 | 3.0 | 3.0 | 0.00 | 0.17 | 0.17 | 91 | 1017.1 |
| 20260903154345 | 73 | 226 | 3.0 | 5.0 | 0.00 | 0.17 | 0.17 | 90 | 1017.0 |
| 20260903153839 | 73 | 207 | 3.0 | 3.0 | 0.00 | 0.17 | 0.17 | 92 | 1017.0 |
| 20260903153335 | 72 | 264 | 3.0 | 3.0 | 0.00 | 0.17 | 0.17 | 92 | 1017.1 |
| 20260903152832 | 72 | 259 | 2.0 | 3.0 | 0.00 | 0.17 | 0.17 | 94 | 1016.9 |
| 20260903152327 | 71 | 326 | 1.0 | 1.0 | 0.00 | 0.17 | 0.17 | 96 | 1017.0 |
| 20260903151821 | 71 | 223 | 3.0 | 3.0 | 0.00 | 0.17 | 0.17 | 96 | 1017.0 |
| 20260903151317 | 70 | 292 | 3.0 | 3.0 | 0.00 | 0.17 | 0.17 | 97 | 1017.3 |
| 20260903150811 | 70 | 306 | 2.0 | 3.0 | 0.00 | 0.17 | 0.17 | 97 | 1017.4 |
| 20260903150306 | 71 | 242 | 2.0 | 2.0 | 0.00 | 0.17 | 0.17 | 97 | 1017.0 |
| 20260903145801 | 70 | 233 | 2.0 | 2.0 | 0.00 | 0.17 | 0.17 | 96 | 1016.9 |
| 20260903145256 | 71 | 260 | 4.0 | 5.0 | 0.00 | 0.17 | 0.17 | 96 | 1017.3 |
| 20260903144755 | 71 | 216 | 5.0 | 6.0 | 0.00 | 0.17 | 0.17 | 96 | 1017.4 |
| 20260903144251 | 71 | 241 | 6.0 | 8.0 | 0.00 | 0.17 | 0.17 | 95 | 1017.4 |
| 20260903143746 | 71 | 289 | 2.0 | 2.0 | 0.00 | 0.17 | 0.17 | 97 | 1017.4 |
| 20260903143243 | 70 | 229 | 3.0 | 3.0 | 0.00 | 0.17 | 0.17 | 98 | 1017.1 |
| 20260903142738 | 69 | 47 | 3.0 | 3.0 | 0.00 | 0.17 | 0.17 | 99 | 1017.5 |
| 20260903142234 | 69 | 207 | 2.0 | 2.0 | 0.00 | 0.17 | 0.17 | 99 | 1017.6 |
| 20260903141730 | 68 | 208 | 2.0 | 2.0 | 0.00 | 0.17 | 0.17 | 99 | 1017.4 |
| 20260903141225 | 68 | 94 | 1.0 | 1.0 | 0.00 | 0.17 | 0.17 | 99 | 1017.3 |
| 20260903140720 | 68 | 271 | 2.0 | 2.0 | 0.00 | 0.17 | 0.17 | 99 | 1017.1 |
| 20260903140215 | 68 | 198 | 2.0 | 2.0 | 0.00 | 0.17 | 0.17 | 99 | 1017.3 |
| 20260903135711 | 68 | 58 | 1.0 | 1.0 | 0.00 | 0.17 | 0.17 | 99 | 1016.8 |
| 20260903135206 | 68 | 274 | 2.0 | 2.0 | 0.00 | 0.17 | 0.17 | 99 | 1017.0 |
| 20260903134705 | 68 | 56 | 1.0 | 1.0 | 0.00 | 0.17 | 0.17 | 99 | 1016.9 |
| 20260903134201 | 68 | 6 | 1.0 | 1.0 | 0.00 | 0.17 | 0.17 | 99 | 1016.7 |
| 20260903133659 | 67 | 2 | 0.0 | 0.0 | 0.00 | 0.17 | 0.17 | 99 | 1016.9 |
| 20260903133155 | 67 | 310 | 1.0 | 1.0 | 0.00 | 0.17 | 0.17 | 99 | 1016.9 |
| 20260903132654 | 67 | 18 | 0.0 | 0.0 | 0.00 | 0.17 | 0.17 | 99 | 1016.9 |
| 20260903132149 | 67 | 41 | 1.0 | 1.0 | 0.00 | 0.17 | 0.17 | 99 | 1016.8 |
| 20260903131643 | 67 | 164 | 2.0 | 2.0 | 0.00 | 0.17 | 0.17 | 99 | 1016.6 |
| 20260903131142 | 68 | 67 | 1.0 | 1.0 | 0.00 | 0.17 | 0.17 | 99 | 1016.7 |
| 20260903130638 | 67 | 30 | 1.0 | 1.0 | 0.00 | 0.17 | 0.17 | 99 | 1016.8 |
| 20260903130132 | 67 | 13 | 0.0 | 0.0 | 0.00 | 0.17 | 0.17 | 99 | 1016.8 |
| 20260903125630 | 67 | 7 | 0.0 | 0.0 | 0.00 | 0.17 | 0.17 | 99 | 1016.9 |
| 20260903125125 | 67 | 347 | 0.0 | 0.0 | 0.00 | 0.17 | 0.17 | 99 | 1016.9 |
| 20260903124620 | 66 | 46 | 1.0 | 1.0 | 0.00 | 0.17 | 0.17 | 99 | 1017.1 |
| 20260903124119 | 66 | 49 | 1.0 | 1.0 | 0.00 | 0.17 | 0.17 | 99 | 1016.7 |
| 20260903123614 | 66 | 237 | 2.0 | 2.0 | 0.00 | 0.17 | 0.17 | 99 | 1016.9 |
| 20260903123113 | 66 | 49 | 0.0 | 1.0 | 0.00 | 0.17 | 0.17 | 99 | 1016.9 |
| 20260903122613 | 66 | 308 | 1.0 | 1.0 | 0.00 | 0.17 | 0.17 | 99 | 1016.9 |
| 20260903122112 | 66 | 354 | 0.0 | 1.0 | 0.00 | 0.17 | 0.17 | 99 | 1016.6 |
| 20260903121607 | 66 | 347 | 0.0 | 0.0 | 0.00 | 0.17 | 0.17 | 99 | 1016.7 |
| 20260903121103 | 66 | 20 | 0.0 | 0.0 | 0.00 | 0.17 | 0.17 | 99 | 1016.5 |
| 20260903120601 | 66 | 14 | 0.0 | 0.0 | 0.00 | 0.17 | 0.17 | 99 | 1016.6 |
| 20260903120056 | 66 | 15 | 0.0 | 0.0 | 0.00 | 0.17 | 0.17 | 99 | 1016.4 |
| 20260903115554 | 66 | 17 | 0.0 | 0.0 | 0.00 | 0.17 | 0.17 | 99 | 1016.5 |
| 20260903115049 | 66 | 17 | 0.0 | 0.0 | 0.00 | 0.17 | 0.17 | 99 | 1016.8 |
| 20260903114544 | 66 | 21 | 2.0 | 3.0 | 0.00 | 0.17 | 0.17 | 99 | 1016.5 |
| 20260903114040 | 65 | 20 | 0.0 | 0.0 | 0.00 | 0.17 | 0.17 | 99 | 1016.7 |
| 20260903113535 | 65 | 37 | 0.0 | 0.0 | 0.00 | 0.17 | 0.17 | 99 | 1016.7 |
| 20260903113031 | 65 | 21 | 0.0 | 0.0 | 0.00 | 0.17 | 0.17 | 99 | 1016.6 |
| 20260903112527 | 65 | 87 | 1.0 | 1.0 | 0.00 | 0.17 | 0.17 | 99 | 1016.7 |
| 20260903112022 | 65 | 70 | 0.0 | 1.0 | 0.00 | 0.17 | 0.17 | 99 | 1016.5 |
| 20260903111520 | 65 | 352 | 1.0 | 1.0 | 0.00 | 0.17 | 0.17 | 99 | 1016.5 |
| 20260903111016 | 65 | 26 | 0.0 | 1.0 | 0.00 | 0.17 | 0.17 | 99 | 1016.5 |
| 20260903110513 | 65 | 344 | 1.0 | 1.0 | 0.00 | 0.17 | 0.17 | 99 | 1016.7 |
| 20260903110007 | 65 | 196 | 1.0 | 2.0 | 0.00 | 0.17 | 0.17 | 99 | 1016.6 |
| 20260903105502 | 65 | 17 | 0.0 | 0.0 | 0.00 | 0.17 | 0.17 | 99 | 1016.5 |
| 20260903104956 | 65 | 222 | 3.0 | 3.0 | 0.00 | 0.17 | 0.17 | 99 | 1016.8 |
| 20260903104455 | 65 | 320 | 1.0 | 2.0 | 0.00 | 0.17 | 0.17 | 99 | 1017.0 |
| 20260903103952 | 65 | 342 | 3.0 | 3.0 | 0.00 | 0.17 | 0.17 | 99 | 1016.8 |
| 20260903103448 | 65 | 267 | 2.0 | 2.0 | 0.00 | 0.17 | 0.17 | 99 | 1016.9 |
| 20260903102943 | 65 | 249 | 4.0 | 5.0 | 0.00 | 0.17 | 0.17 | 99 | 1017.0 |
| 20260903102439 | 65 | 334 | 1.0 | 1.0 | 0.00 | 0.17 | 0.17 | 99 | 1016.9 |
| 20260903101937 | 65 | 305 | 2.0 | 3.0 | 0.00 | 0.17 | 0.17 | 99 | 1017.1 |
| 20260903101432 | 65 | 264 | 2.0 | 2.0 | 0.00 | 0.17 | 0.17 | 99 | 1016.8 |
| 20260903100928 | 64 | 229 | 1.0 | 2.0 | 0.00 | 0.17 | 0.17 | 99 | 1016.8 |
| 20260903100423 | 64 | 204 | 2.0 | 2.0 | 0.00 | 0.17 | 0.17 | 99 | 1017.4 |
| 20260903095920 | 64 | 320 | 2.0 | 2.0 | 0.00 | 0.17 | 0.17 | 99 | 1017.5 |
| 20260903095415 | 64 | 340 | 1.0 | 1.0 | 0.00 | 0.17 | 0.17 | 99 | 1017.0 |
| 20260903094910 | 64 | 23 | 0.0 | 0.0 | 0.00 | 0.17 | 0.17 | 99 | 1016.7 |
| 20260903094409 | 63 | 335 | 1.0 | 1.0 | 0.00 | 0.17 | 0.17 | 99 | 1017.1 |
| 20260903093905 | 63 | 335 | 1.0 | 1.0 | 0.00 | 0.17 | 0.17 | 99 | 1016.9 |
| 20260903093400 | 63 | 335 | 1.0 | 1.0 | 0.00 | 0.17 | 0.17 | 99 | 1016.7 |
| 20260903092855 | 0 | 0.0 | 0.0 | 0.00 | 0.00 | 0.00 | 1016.9 | ||
| 20260903092355 | 63 | 340 | 0.0 | 1.0 | 0.00 | 0.17 | 0.17 | 99 | 1016.9 |
| 20260903091853 | 63 | 340 | 0.0 | 1.0 | 0.00 | 0.17 | 0.17 | 99 | 1017.0 |
| 20260903091353 | 63 | 335 | 0.0 | 1.0 | 0.00 | 0.17 | 0.17 | 99 | 1017.3 |
| 20260903090848 | 63 | 3 | 0.0 | 1.0 | 0.00 | 0.17 | 0.17 | 99 | 1017.0 |
| 20260903090343 | 63 | 335 | 1.0 | 1.0 | 0.00 | 0.17 | 0.17 | 99 | 1016.7 |
| 20260903085841 | 63 | 358 | 0.0 | 0.0 | 0.00 | 0.17 | 0.17 | 99 | 1016.8 |
| 20260903085336 | 63 | 319 | 1.0 | 1.0 | 0.00 | 0.17 | 0.17 | 99 | 1016.6 |
| 20260903084836 | 63 | 9 | 0.0 | 0.0 | 0.00 | 0.17 | 0.17 | 99 | 1016.6 |
| 20260903084334 | 63 | 290 | 1.0 | 2.0 | 0.00 | 0.17 | 0.17 | 99 | 1016.8 |
| 20260903083830 | 63 | 326 | 1.0 | 1.0 | 0.00 | 0.17 | 0.17 | 99 | 1016.8 |
| 20260903083325 | 63 | 326 | 1.0 | 1.0 | 0.00 | 0.17 | 0.17 | 99 | 1017.0 |
| 20260903082824 | 63 | 32 | 0.0 | 0.0 | 0.00 | 0.17 | 0.17 | 99 | 1016.5 |
| 20260903082319 | 63 | 16 | 0.0 | 0.0 | 0.00 | 0.17 | 0.17 | 99 | 1016.8 |
| 20260903081815 | 63 | 21 | 0.0 | 0.0 | 0.00 | 0.17 | 0.17 | 99 | 1017.3 |
| 20260903081310 | 63 | 4 | 0.0 | 0.0 | 0.00 | 0.17 | 0.17 | 99 | 1017.3 |
| 20260903080807 | 63 | 19 | 0.0 | 0.0 | 0.00 | 0.17 | 0.17 | 99 | 1016.8 |
| 20260903080304 | 63 | 23 | 0.0 | 0.0 | 0.00 | 0.17 | 0.17 | 99 | 1017.1 |
| 20260903075803 | 63 | 16 | 0.0 | 0.0 | 0.00 | 0.17 | 0.17 | 99 | 1017.0 |
| 20260903075258 | 63 | 357 | 0.0 | 1.0 | 0.00 | 0.17 | 0.17 | 99 | 1016.8 |
| 20260903074757 | 63 | 65 | 1.0 | 1.0 | 0.05 | 0.17 | 0.17 | 99 | 1016.6 |
| 20260903074252 | 63 | 25 | 0.0 | 0.0 | 0.05 | 0.17 | 0.17 | 99 | 1016.6 |
| 20260903073748 | 63 | 17 | 0.0 | 0.0 | 0.00 | 0.16 | 0.16 | 99 | 1016.7 |
| 20260903073243 | 63 | 3 | 0.0 | 0.0 | 0.00 | 0.16 | 0.16 | 99 | 1016.8 |
| 20260903072739 | 63 | 340 | 1.0 | 1.0 | 0.07 | 0.16 | 0.16 | 99 | 1017.0 |
| 20260903072235 | 63 | 357 | 1.0 | 1.0 | 0.07 | 0.16 | 0.16 | 99 | 1016.7 |
| 20260903071732 | 63 | 344 | 1.0 | 1.0 | 0.00 | 0.15 | 0.15 | 99 | 1016.6 |
| 20260903071227 | 63 | 11 | 0.0 | 0.0 | 0.00 | 0.15 | 0.15 | 99 | 1016.4 |
| 20260903070726 | 63 | 18 | 0.0 | 0.0 | 0.00 | 0.15 | 0.15 | 99 | 1016.6 |
| 20260903070223 | 63 | 14 | 0.0 | 0.0 | 0.00 | 0.15 | 0.15 | 99 | 1017.1 |
| 20260903065717 | 63 | 354 | 1.0 | 1.0 | 0.00 | 0.15 | 0.15 | 99 | 1016.7 |
| 20260903065211 | 64 | 7 | 0.0 | 1.0 | 0.00 | 0.15 | 0.15 | 99 | 1016.9 |
| 20260903064709 | 64 | 357 | 0.0 | 0.0 | 0.00 | 0.15 | 0.15 | 99 | 1016.9 |
| 20260903064206 | 64 | 34 | 0.0 | 1.0 | 0.00 | 0.15 | 0.15 | 99 | 1017.1 |
| 20260903063701 | 64 | 118 | 1.0 | 1.0 | 0.00 | 0.15 | 0.15 | 99 | 1017.3 |
| 20260903063156 | 64 | 63 | 1.0 | 1.0 | 0.00 | 0.15 | 0.15 | 99 | 1017.4 |
| 20260903062652 | 64 | 36 | 0.0 | 1.0 | 0.00 | 0.15 | 0.15 | 99 | 1017.1 |
| 20260903062146 | 64 | 345 | 0.0 | 1.0 | 0.00 | 0.15 | 0.15 | 99 | 1017.5 |
| 20260903061642 | 64 | 145 | 1.0 | 1.0 | 0.00 | 0.15 | 0.15 | 99 | 1017.8 |
| 20260903061141 | 64 | 29 | 1.0 | 1.0 | 0.00 | 0.15 | 0.15 | 99 | 1017.9 |
| 20260903060637 | 64 | 7 | 1.0 | 1.0 | 0.00 | 0.15 | 0.15 | 99 | 1017.9 |
| 20260903060132 | 64 | 49 | 0.0 | 1.0 | 0.00 | 0.15 | 0.15 | 99 | 1017.9 |
| 20260903055629 | 64 | 44 | 0.0 | 0.0 | 0.00 | 0.15 | 0.15 | 99 | 1017.8 |
| 20260903055127 | 64 | 37 | 0.0 | 1.0 | 0.05 | 0.15 | 0.15 | 99 | 1017.7 |
| 20260903054622 | 64 | 351 | 0.0 | 0.0 | 0.05 | 0.15 | 0.15 | 99 | 1017.4 |
| 20260903054118 | 64 | 5 | 0.0 | 0.0 | 0.00 | 0.14 | 0.14 | 99 | 1017.4 |
| 20260903053614 | 64 | 354 | 0.0 | 1.0 | 0.00 | 0.14 | 0.14 | 99 | 1017.5 |
| 20260903053109 | 64 | 346 | 1.0 | 1.0 | 0.00 | 0.14 | 0.14 | 99 | 1017.6 |
| 20260903052605 | 64 | 340 | 1.0 | 1.0 | 0.07 | 0.14 | 0.14 | 99 | 1017.6 |
| 20260903052100 | 64 | 354 | 0.0 | 1.0 | 0.12 | 0.14 | 0.14 | 99 | 1017.8 |
| 20260903051555 | 64 | 17 | 0.0 | 0.0 | 0.12 | 0.13 | 0.13 | 99 | 1017.8 |
| 20260903051051 | 64 | 17 | 0.0 | 0.0 | 0.12 | 0.12 | 0.12 | 99 | 1018.2 |
| 20260903050550 | 64 | 10 | 0.0 | 0.0 | 0.12 | 0.11 | 0.11 | 99 | 1018.9 |
| 20260903050046 | 64 | 40 | 1.0 | 1.0 | 0.05 | 0.09 | 0.09 | 99 | 1018.7 |
| 20260903045544 | 64 | 354 | 0.0 | 0.0 | 0.12 | 0.09 | 0.09 | 99 | 1019.3 |
| 20260903045042 | 64 | 70 | 1.0 | 1.0 | 0.14 | 0.08 | 0.08 | 99 | 1019.3 |
| 20260903044537 | 64 | 353 | 0.0 | 0.0 | 0.12 | 0.07 | 0.07 | 99 | 1019.6 |
| 20260903044032 | 64 | 320 | 1.0 | 1.0 | 0.05 | 0.06 | 0.06 | 99 | 1020.0 |
| 20260903043528 | 64 | 333 | 1.0 | 1.0 | 0.07 | 0.05 | 0.05 | 99 | 1019.9 |
| 20260903043027 | 64 | 347 | 0.0 | 1.0 | 0.07 | 0.05 | 0.05 | 99 | 1019.9 |
| 20260903042522 | 64 | 316 | 1.0 | 2.0 | 0.00 | 0.04 | 0.04 | 99 | 1019.6 |
| 20260903042018 | 64 | 352 | 1.0 | 1.0 | 0.05 | 0.04 | 0.04 | 99 | 1019.1 |
| 20260903041514 | 64 | 35 | 0.0 | 0.0 | 0.12 | 0.04 | 0.04 | 99 | 1018.8 |
| 20260903041009 | 64 | 5 | 0.0 | 0.0 | 0.19 | 0.03 | 0.03 | 99 | 1018.5 |
| 20260903040508 | 64 | 32 | 0.0 | 0.0 | 0.17 | 0.02 | 0.02 | 99 | 1018.6 |
| 20260903040008 | 64 | 17 | 0.0 | 0.0 | 0.24 | 0.67 | 0.67 | 99 | 1018.7 |
| 20260903035500 | 64 | 31 | 0.0 | 0.0 | 0.31 | 0.66 | 0.66 | 99 | 1018.9 |
| 20260903034955 | 64 | 14 | 0.0 | 0.0 | 0.19 | 0.63 | 0.63 | 99 | 1019.1 |
| 20260903034450 | 64 | 358 | 0.0 | 1.0 | 0.24 | 0.61 | 0.61 | 99 | 1019.2 |
| 20260903033950 | 64 | 352 | 0.0 | 0.0 | 0.24 | 0.60 | 0.60 | 99 | 1018.9 |
| 20260903033445 | 64 | 5 | 0.0 | 0.0 | 0.19 | 0.57 | 0.57 | 99 | 1018.9 |
| 20260903032940 | 64 | 13 | 0.0 | 0.0 | 0.17 | 0.56 | 0.56 | 99 | 1019.6 |
| 20260903032435 | 64 | 19 | 0.0 | 0.0 | 0.17 | 0.54 | 0.54 | 99 | 1019.9 |
| 20260903031930 | 64 | 31 | 1.0 | 1.0 | 0.17 | 0.52 | 0.52 | 99 | 1020.1 |
| 20260903031425 | 64 | 32 | 0.0 | 1.0 | 0.19 | 0.51 | 0.51 | 99 | 1020.4 |
| 20260903030920 | 64 | 6 | 1.0 | 1.0 | 0.26 | 0.49 | 0.49 | 99 | 1020.6 |
| 20260903030416 | 64 | 20 | 0.0 | 1.0 | 0.35 | 0.48 | 0.48 | 99 | 1020.7 |
| 20260903025912 | 64 | 10 | 2.0 | 2.0 | 0.24 | 0.45 | 0.45 | 99 | 1020.9 |
| 20260903025408 | 64 | 10 | 0.0 | 1.0 | 0.19 | 0.42 | 0.42 | 99 | 1021.1 |
| 20260903024902 | 64 | 260 | 2.0 | 2.0 | 0.28 | 0.41 | 0.41 | 99 | 1020.8 |
| 20260903024356 | 64 | 172 | 2.0 | 2.0 | 0.73 | 0.38 | 0.38 | 99 | 1019.7 |
| 20260903023851 | 64 | 91 | 1.0 | 2.0 | 1.04 | 0.36 | 0.36 | 99 | 1020.2 |
| 20260903023347 | 64 | 265 | 2.0 | 2.0 | 0.42 | 0.24 | 0.24 | 99 | 1020.3 |
| 20260903022842 | 64 | 44 | 0.0 | 1.0 | 0.17 | 0.19 | 0.19 | 99 | 1020.0 |
| 20260903022341 | 64 | 1 | 0.0 | 0.0 | 0.17 | 0.17 | 0.17 | 99 | 1019.7 |
| 20260903021840 | 64 | 17 | 0.0 | 0.0 | 0.12 | 0.16 | 0.16 | 99 | 1019.8 |
| 20260903021336 | 64 | 354 | 1.0 | 1.0 | 0.00 | 0.14 | 0.14 | 99 | 1019.8 |
| 20260903020835 | 64 | 23 | 0.0 | 1.0 | 0.00 | 0.14 | 0.14 | 99 | 1019.7 |
| 20260903020330 | 64 | 305 | 1.0 | 2.0 | 0.00 | 0.14 | 0.14 | 99 | 1019.8 |
| 20260903015825 | 64 | 16 | 0.0 | 0.0 | 0.00 | 0.14 | 0.14 | 99 | 1019.6 |
| 20260903015321 | 64 | 23 | 0.0 | 1.0 | 0.00 | 0.14 | 0.14 | 99 | 1019.8 |
| 20260903014816 | 64 | 11 | 0.0 | 0.0 | 0.00 | 0.14 | 0.14 | 99 | 1019.9 |
| 20260903014315 | 64 | 15 | 0.0 | 1.0 | 0.00 | 0.14 | 0.14 | 99 | 1020.2 |
| 20260903013805 | 64 | 34 | 0.0 | 0.0 | 0.00 | 0.14 | 0.14 | 99 | 1020.3 |
| 20260903013304 | 64 | 19 | 0.0 | 0.0 | 0.00 | 0.14 | 0.14 | 99 | 1020.4 |
| 20260903012803 | 64 | 35 | 1.0 | 1.0 | 0.00 | 0.14 | 0.14 | 99 | 1020.2 |
| 20260903012257 | 64 | 357 | 1.0 | 1.0 | 0.00 | 0.14 | 0.14 | 99 | 1020.3 |
| 20260903011751 | 64 | 341 | 1.0 | 2.0 | 0.00 | 0.14 | 0.14 | 99 | 1020.2 |
| 20260903011251 | 64 | 31 | 1.0 | 1.0 | 0.00 | 0.14 | 0.14 | 99 | 1019.9 |
| 20260903010746 | 64 | 10 | 0.0 | 0.0 | 0.00 | 0.14 | 0.14 | 99 | 1019.8 |
| 20260903010242 | 64 | 70 | 1.0 | 1.0 | 0.00 | 0.14 | 0.14 | 99 | 1019.5 |
| 20260903005740 | 64 | 6 | 0.0 | 0.0 | 0.00 | 0.14 | 0.14 | 99 | 1019.5 |
| 20260903005235 | 64 | 344 | 3.0 | 3.0 | 0.00 | 0.14 | 0.14 | 99 | 1019.1 |
| 20260903004731 | 64 | 0 | 1.0 | 1.0 | 0.00 | 0.14 | 0.14 | 99 | 1019.1 |
| 20260903004226 | 64 | 41 | 1.0 | 1.0 | 0.00 | 0.14 | 0.14 | 99 | 1019.2 |
| 20260903003722 | 64 | 28 | 1.0 | 1.0 | 0.00 | 0.14 | 0.14 | 99 | 1019.3 |
| 20260903003217 | 64 | 8 | 0.0 | 1.0 | 0.00 | 0.14 | 0.14 | 99 | 1019.7 |
| 20260903002711 | 64 | 71 | 1.0 | 2.0 | 0.00 | 0.14 | 0.14 | 99 | 1019.8 |
| 20260903002206 | 64 | 25 | 0.0 | 0.0 | 0.00 | 0.14 | 0.14 | 99 | 1019.9 |
| 20260903001701 | 64 | 15 | 0.0 | 0.0 | 0.00 | 0.14 | 0.14 | 99 | 1019.9 |
| 20260903001155 | 64 | 6 | 0.0 | 0.0 | 0.00 | 0.14 | 0.14 | 99 | 1019.7 |
| 20260903000650 | 64 | 17 | 0.0 | 0.0 | 0.00 | 0.14 | 0.14 | 99 | 1019.9 |
| 20260903000149 | 64 | 6 | 1.0 | 1.0 | 0.00 | 0.14 | 0.14 | 99 | 1019.9 |
| 20260902235643 | 64 | 42 | 0.0 | 1.0 | 0.00 | 0.14 | 0.14 | 99 | 1019.7 |
| 20260902235138 | 64 | 7 | 0.0 | 0.0 | 0.00 | 0.14 | 0.14 | 99 | 1019.7 |
| 20260902234637 | 64 | 62 | 2.0 | 3.0 | 0.00 | 0.14 | 0.14 | 99 | 1019.6 |
| 20260902234137 | 64 | 15 | 0.0 | 0.0 | 0.07 | 0.14 | 0.14 | 99 | 1019.3 |
| 20260902233632 | 64 | 11 | 0.0 | 0.0 | 0.07 | 0.14 | 0.14 | 99 | 1019.6 |
| 20260902233131 | 64 | 15 | 0.0 | 0.0 | 0.00 | 0.13 | 0.13 | 99 | 1019.3 |
| 20260902232626 | 64 | 14 | 0.0 | 0.0 | 0.00 | 0.13 | 0.13 | 99 | 1019.3 |
| 20260902232125 | 64 | 29 | 0.0 | 1.0 | 0.00 | 0.13 | 0.13 | 99 | 1019.6 |
| 20260902231625 | 64 | 9 | 1.0 | 1.0 | 0.00 | 0.13 | 0.13 | 99 | 1019.3 |
| 20260902231124 | 64 | 29 | 3.0 | 3.0 | 0.00 | 0.13 | 0.13 | 99 | 1019.2 |
| 20260902230620 | 64 | 34 | 0.0 | 1.0 | 0.00 | 0.13 | 0.13 | 99 | 1019.5 |
| 20260902230118 | 64 | 349 | 0.0 | 0.0 | 0.00 | 0.13 | 0.13 | 99 | 1019.2 |
| 20260902225614 | 64 | 21 | 1.0 | 1.0 | 0.00 | 0.13 | 0.13 | 99 | 1019.5 |
| 20260902225113 | 64 | 13 | 0.0 | 0.0 | 0.00 | 0.13 | 0.13 | 99 | 1019.6 |
| 20260902224612 | 64 | 22 | 0.0 | 0.0 | 0.00 | 0.13 | 0.13 | 99 | 1019.6 |
| 20260902224108 | 64 | 22 | 0.0 | 0.0 | 0.05 | 0.13 | 0.13 | 99 | 1019.5 |
| 20260902223604 | 64 | 31 | 0.0 | 0.0 | 0.05 | 0.13 | 0.13 | 99 | 1019.5 |
| 20260902223103 | 64 | 38 | 0.0 | 0.0 | 0.00 | 0.12 | 0.12 | 99 | 1019.8 |
| 20260902222602 | 64 | 23 | 0.0 | 0.0 | 0.00 | 0.12 | 0.12 | 99 | 1019.9 |
| 20260902222101 | 64 | 34 | 0.0 | 1.0 | 0.00 | 0.12 | 0.12 | 99 | 1019.8 |
| 20260902221555 | 65 | 33 | 0.0 | 0.0 | 0.00 | 0.12 | 0.12 | 99 | 1019.8 |
| 20260902221050 | 65 | 66 | 1.0 | 1.0 | 0.00 | 0.12 | 0.12 | 99 | 1020.1 |
| 20260902220545 | 65 | 16 | 0.0 | 0.0 | 0.00 | 0.12 | 0.12 | 99 | 1019.9 |
| 20260902220040 | 65 | 21 | 0.0 | 0.0 | 0.00 | 0.12 | 0.12 | 99 | 1020.0 |
| 20260902215536 | 65 | 33 | 0.0 | 0.0 | 0.07 | 0.12 | 0.12 | 99 | 1019.8 |
| 20260902215031 | 65 | 28 | 0.0 | 0.0 | 0.07 | 0.12 | 0.12 | 99 | 1019.9 |
| 20260902214526 | 65 | 21 | 2.0 | 2.0 | 0.00 | 0.11 | 0.11 | 99 | 1019.8 |
| 20260902214025 | 65 | 331 | 1.0 | 2.0 | 0.00 | 0.11 | 0.11 | 99 | 1020.0 |
| 20260902213521 | 65 | 38 | 0.0 | 1.0 | 0.00 | 0.11 | 0.11 | 99 | 1019.9 |
| 20260902213020 | 65 | 4 | 1.0 | 2.0 | 0.00 | 0.11 | 0.11 | 99 | 1019.9 |
| 20260902212516 | 64 | 66 | 1.0 | 1.0 | 0.00 | 0.11 | 0.11 | 99 | 1020.0 |
| 20260902212012 | 65 | 36 | 0.0 | 0.0 | 0.00 | 0.11 | 0.11 | 99 | 1019.7 |
| 20260902211508 | 64 | 294 | 1.0 | 2.0 | 0.00 | 0.11 | 0.11 | 99 | 1019.5 |
| 20260902211003 | 65 | 297 | 1.0 | 1.0 | 0.00 | 0.11 | 0.11 | 99 | 1019.2 |
| 20260902210502 | 65 | 44 | 1.0 | 2.0 | 0.00 | 0.11 | 0.11 | 99 | 1019.5 |
| 20260902210001 | 65 | 21 | 1.0 | 1.0 | 0.00 | 0.11 | 0.11 | 99 | 1019.8 |
| 20260902205456 | 65 | 21 | 1.0 | 1.0 | 0.00 | 0.11 | 0.11 | 99 | 1019.9 |
| 20260902204952 | 65 | 52 | 5.0 | 8.0 | 0.00 | 0.11 | 0.11 | 99 | 1019.8 |
| 20260902204451 | 65 | 52 | 5.0 | 8.0 | 0.00 | 0.11 | 0.11 | 99 | 1019.8 |
| 20260902203947 | 65 | 35 | 1.0 | 1.0 | 0.00 | 0.11 | 0.11 | 99 | 1020.1 |
| 20260902203442 | 65 | 25 | 1.0 | 1.0 | 0.00 | 0.11 | 0.11 | 99 | 1020.1 |
| 20260902202941 | 65 | 49 | 0.0 | 1.0 | 0.07 | 0.11 | 0.11 | 99 | 1020.3 |